Year,Month,Day,Hour,Minute,Value (Times are PST for temperature in C)
2013,05,04,00,00,10.30
2013,05,04,00,01,10.30
2013,05,04,00,02,10.30
2013,05,04,00,03,10.30
2013,05,04,00,04,10.30
2013,05,04,00,05,10.30
2013,05,04,00,06,10.30
2013,05,04,00,07,10.30
2013,05,04,00,08,10.30
2013,05,04,00,09,10.30
2013,05,04,00,10,10.30
2013,05,04,00,11,10.30
2013,05,04,00,12,10.30
2013,05,04,00,13,10.30
2013,05,04,00,14,10.30
2013,05,04,00,15,10.30
2013,05,04,00,16,10.30
2013,05,04,00,17,10.30
2013,05,04,00,18,10.30
2013,05,04,00,19,10.20
2013,05,04,00,20,10.20
2013,05,04,00,21,10.20
2013,05,04,00,22,10.20
2013,05,04,00,23,10.20
2013,05,04,00,24,10.10
2013,05,04,00,25,10.10
2013,05,04,00,26,10.10
2013,05,04,00,27,10.10
2013,05,04,00,28,10.10
2013,05,04,00,29,10.10
2013,05,04,00,30,10.10
2013,05,04,00,31,10.10
2013,05,04,00,32,10.00
2013,05,04,00,33,9.90
2013,05,04,00,34,9.90
2013,05,04,00,35,9.90
2013,05,04,00,36,9.90
2013,05,04,00,37,9.90
2013,05,04,00,38,9.80
2013,05,04,00,39,9.80
2013,05,04,00,40,9.80
2013,05,04,00,41,9.80
2013,05,04,00,42,9.80
2013,05,04,00,43,9.80
2013,05,04,00,44,9.80
2013,05,04,00,45,9.70
2013,05,04,00,46,9.70
2013,05,04,00,47,9.70
2013,05,04,00,48,9.70
2013,05,04,00,49,9.70
2013,05,04,00,50,9.70
2013,05,04,00,51,9.70
2013,05,04,00,52,9.70
2013,05,04,00,53,9.70
2013,05,04,00,54,9.70
2013,05,04,00,55,9.70
2013,05,04,00,56,9.70
2013,05,04,00,57,9.70
2013,05,04,00,58,9.70
2013,05,04,00,59,9.80
2013,05,04,01,00,9.80
2013,05,04,01,01,9.80
2013,05,04,01,02,9.70
2013,05,04,01,03,9.70
2013,05,04,01,04,9.70
2013,05,04,01,05,9.70
2013,05,04,01,06,9.70
2013,05,04,01,07,9.70
2013,05,04,01,08,9.60
2013,05,04,01,09,9.60
2013,05,04,01,10,9.60
2013,05,04,01,11,9.50
2013,05,04,01,12,9.50
2013,05,04,01,13,9.40
2013,05,04,01,14,9.40
2013,05,04,01,15,9.30
2013,05,04,01,16,9.30
2013,05,04,01,17,9.20
2013,05,04,01,18,9.20
2013,05,04,01,19,9.20
2013,05,04,01,20,9.10
2013,05,04,01,21,9.10
2013,05,04,01,22,9.00
2013,05,04,01,23,9.00
2013,05,04,01,24,9.00
2013,05,04,01,25,9.00
2013,05,04,01,26,9.00
2013,05,04,01,27,8.90
2013,05,04,01,28,8.90
2013,05,04,01,29,8.90
2013,05,04,01,30,8.90
2013,05,04,01,31,8.90
2013,05,04,01,32,8.90
2013,05,04,01,33,8.90
2013,05,04,01,34,8.90
2013,05,04,01,35,8.90
2013,05,04,01,36,8.90
2013,05,04,01,37,8.90
2013,05,04,01,38,8.90
2013,05,04,01,39,8.90
2013,05,04,01,40,8.90
2013,05,04,01,41,8.90
2013,05,04,01,42,9.00
2013,05,04,01,43,9.00
2013,05,04,01,44,9.00
2013,05,04,01,45,9.00
2013,05,04,01,46,9.00
2013,05,04,01,47,9.10
2013,05,04,01,48,9.10
2013,05,04,01,49,9.10
2013,05,04,01,50,9.10
2013,05,04,01,51,9.20
2013,05,04,01,52,9.20
2013,05,04,01,53,9.20
2013,05,04,01,54,9.20
2013,05,04,01,55,9.30
2013,05,04,01,56,9.40
2013,05,04,01,57,9.50
2013,05,04,01,58,9.60
2013,05,04,01,59,9.70
2013,05,04,02,00,9.70
2013,05,04,02,01,9.70
2013,05,04,02,02,9.70
2013,05,04,02,03,9.70
2013,05,04,02,04,9.70
2013,05,04,02,05,9.70
2013,05,04,02,06,9.70
2013,05,04,02,07,9.60
2013,05,04,02,08,9.50
2013,05,04,02,09,9.40
2013,05,04,02,10,9.30
2013,05,04,02,11,9.20
2013,05,04,02,12,9.10
2013,05,04,02,13,9.00
2013,05,04,02,14,8.90
2013,05,04,02,15,8.90
2013,05,04,02,16,8.80
2013,05,04,02,17,8.70
2013,05,04,02,18,8.70
2013,05,04,02,19,8.70
2013,05,04,02,20,8.70
2013,05,04,02,21,8.70
2013,05,04,02,22,8.70
2013,05,04,02,23,8.70
2013,05,04,02,24,8.60
2013,05,04,02,25,8.60
2013,05,04,02,26,8.60
2013,05,04,02,27,8.60
2013,05,04,02,28,8.60
2013,05,04,02,29,8.60
2013,05,04,02,30,8.60
2013,05,04,02,31,8.60
2013,05,04,02,32,8.60
2013,05,04,02,33,8.60
2013,05,04,02,34,8.60
2013,05,04,02,35,8.60
2013,05,04,02,36,8.60
2013,05,04,02,37,8.70
2013,05,04,02,38,8.70
2013,05,04,02,39,8.70
2013,05,04,02,40,8.70
2013,05,04,02,41,8.70
2013,05,04,02,42,8.70
2013,05,04,02,43,8.70
2013,05,04,02,44,8.70
2013,05,04,02,45,8.70
2013,05,04,02,46,8.70
2013,05,04,02,47,8.70
2013,05,04,02,48,8.70
2013,05,04,02,49,8.70
2013,05,04,02,50,8.70
2013,05,04,02,51,8.70
2013,05,04,02,52,8.70
2013,05,04,02,53,8.70
2013,05,04,02,54,8.70
2013,05,04,02,55,8.60
2013,05,04,02,56,8.60
2013,05,04,02,57,8.60
2013,05,04,02,58,8.60
2013,05,04,02,59,8.60
2013,05,04,03,00,8.60
2013,05,04,03,01,8.60
2013,05,04,03,02,8.60
2013,05,04,03,03,8.50
2013,05,04,03,04,8.50
2013,05,04,03,05,8.50
2013,05,04,03,06,8.50
2013,05,04,03,07,8.50
2013,05,04,03,08,8.40
2013,05,04,03,09,8.40
2013,05,04,03,10,8.40
2013,05,04,03,11,8.30
2013,05,04,03,12,8.30
2013,05,04,03,13,8.30
2013,05,04,03,14,8.20
2013,05,04,03,15,8.20
2013,05,04,03,16,8.20
2013,05,04,03,17,8.20
2013,05,04,03,18,8.20
2013,05,04,03,19,8.20
2013,05,04,03,20,8.20
2013,05,04,03,21,8.20
2013,05,04,03,22,8.20
2013,05,04,03,23,8.10
2013,05,04,03,24,8.10
2013,05,04,03,25,8.10
2013,05,04,03,26,8.10
2013,05,04,03,27,8.10
2013,05,04,03,28,8.00
2013,05,04,03,29,8.00
2013,05,04,03,30,8.00
2013,05,04,03,31,7.90
2013,05,04,03,32,7.90
2013,05,04,03,33,7.90
2013,05,04,03,34,7.90
2013,05,04,03,35,7.80
2013,05,04,03,36,7.80
2013,05,04,03,37,7.80
2013,05,04,03,38,7.80
2013,05,04,03,39,7.80
2013,05,04,03,40,7.80
2013,05,04,03,41,7.80
2013,05,04,03,42,7.80
2013,05,04,03,43,7.80
2013,05,04,03,44,7.80
2013,05,04,03,45,7.80
2013,05,04,03,46,7.90
2013,05,04,03,47,7.90
2013,05,04,03,48,8.00
2013,05,04,03,49,8.10
2013,05,04,03,50,8.10
2013,05,04,03,51,8.20
2013,05,04,03,52,8.30
2013,05,04,03,53,8.30
2013,05,04,03,54,8.40
2013,05,04,03,55,8.40
2013,05,04,03,56,8.40
2013,05,04,03,57,8.40
2013,05,04,03,58,8.40
2013,05,04,03,59,8.40
2013,05,04,04,00,8.40
2013,05,04,04,01,8.40
2013,05,04,04,02,8.40
2013,05,04,04,03,8.40
2013,05,04,04,04,8.40
2013,05,04,04,05,8.40
2013,05,04,04,06,8.40
2013,05,04,04,07,8.40
2013,05,04,04,08,8.50
2013,05,04,04,09,8.50
2013,05,04,04,10,8.50
2013,05,04,04,11,8.60
2013,05,04,04,12,8.60
2013,05,04,04,13,8.70
2013,05,04,04,14,8.80
2013,05,04,04,15,8.90
2013,05,04,04,16,9.00
2013,05,04,04,17,9.20
2013,05,04,04,18,9.20
2013,05,04,04,19,9.30
2013,05,04,04,20,9.40
2013,05,04,04,21,9.50
2013,05,04,04,22,9.60
2013,05,04,04,23,9.60
2013,05,04,04,24,9.70
2013,05,04,04,25,9.70
2013,05,04,04,26,9.70
2013,05,04,04,27,9.80
2013,05,04,04,28,9.80
2013,05,04,04,29,9.70
2013,05,04,04,30,9.60
2013,05,04,04,31,9.50
2013,05,04,04,32,9.30
2013,05,04,04,33,9.20
2013,05,04,04,34,9.10
2013,05,04,04,35,9.00
2013,05,04,04,36,8.90
2013,05,04,04,37,8.80
2013,05,04,04,38,8.70
2013,05,04,04,39,8.70
2013,05,04,04,40,8.60
2013,05,04,04,41,8.60
2013,05,04,04,42,8.60
2013,05,04,04,43,8.60
2013,05,04,04,44,8.50
2013,05,04,04,45,8.50
2013,05,04,04,46,8.50
2013,05,04,04,47,8.40
2013,05,04,04,48,8.40
2013,05,04,04,49,8.40
2013,05,04,04,50,8.40
2013,05,04,04,51,8.40
2013,05,04,04,52,8.40
2013,05,04,04,53,8.30
2013,05,04,04,54,8.30
2013,05,04,04,55,8.20
2013,05,04,04,56,8.20
2013,05,04,04,57,8.20
2013,05,04,04,58,8.20
2013,05,04,04,59,8.20
2013,05,04,05,00,8.20
2013,05,04,05,01,8.20
2013,05,04,05,02,8.20
2013,05,04,05,03,8.20
2013,05,04,05,04,8.20
2013,05,04,05,05,8.20
2013,05,04,05,06,8.10
2013,05,04,05,07,8.10
2013,05,04,05,08,8.10
2013,05,04,05,09,8.10
2013,05,04,05,10,8.20
2013,05,04,05,11,8.20
2013,05,04,05,12,8.30
2013,05,04,05,13,8.40
2013,05,04,05,14,8.50
2013,05,04,05,15,8.60
2013,05,04,05,16,8.70
2013,05,04,05,17,8.70
2013,05,04,05,18,8.80
2013,05,04,05,19,8.90
2013,05,04,05,20,8.90
2013,05,04,05,21,9.00
2013,05,04,05,22,9.00
2013,05,04,05,23,9.20
2013,05,04,05,24,9.30
2013,05,04,05,25,9.40
2013,05,04,05,26,9.50
2013,05,04,05,27,9.60
2013,05,04,05,28,9.80
2013,05,04,05,29,9.90
2013,05,04,05,30,10.00
2013,05,04,05,31,10.10
2013,05,04,05,32,10.20
2013,05,04,05,33,10.30
2013,05,04,05,34,10.40
2013,05,04,05,35,10.40
2013,05,04,05,36,10.50
2013,05,04,05,37,10.60
2013,05,04,05,38,10.70
2013,05,04,05,39,10.80
2013,05,04,05,40,11.00
2013,05,04,05,41,11.20
2013,05,04,05,42,11.30
2013,05,04,05,43,11.40
2013,05,04,05,44,11.50
2013,05,04,05,45,11.60
2013,05,04,05,46,11.60
2013,05,04,05,47,11.70
2013,05,04,05,48,11.70
2013,05,04,05,49,11.70
2013,05,04,05,50,11.70
2013,05,04,05,51,11.60
2013,05,04,05,52,11.60
2013,05,04,05,53,11.60
2013,05,04,05,54,11.60
2013,05,04,05,55,11.60
2013,05,04,05,56,11.60
2013,05,04,05,57,11.60
2013,05,04,05,58,11.60
2013,05,04,05,59,11.60
2013,05,04,06,00,11.50
2013,05,04,06,01,11.40
2013,05,04,06,02,11.40
2013,05,04,06,03,11.40
2013,05,04,06,04,11.40
2013,05,04,06,05,11.40
2013,05,04,06,06,11.40
2013,05,04,06,07,11.30
2013,05,04,06,08,11.30
2013,05,04,06,09,11.30
2013,05,04,06,10,11.30
2013,05,04,06,11,11.20
2013,05,04,06,12,11.20
2013,05,04,06,13,11.20
2013,05,04,06,14,11.10
2013,05,04,06,15,11.10
2013,05,04,06,16,11.10
2013,05,04,06,17,11.10
2013,05,04,06,18,10.90
2013,05,04,06,19,10.90
2013,05,04,06,20,10.90
2013,05,04,06,21,10.90
2013,05,04,06,22,10.80
2013,05,04,06,23,10.80
2013,05,04,06,24,10.80
2013,05,04,06,25,10.70
2013,05,04,06,26,10.70
2013,05,04,06,27,10.70
2013,05,04,06,28,10.70
2013,05,04,06,29,10.80
2013,05,04,06,30,10.80
2013,05,04,06,31,10.80
2013,05,04,06,32,10.90
2013,05,04,06,33,10.90
2013,05,04,06,34,10.90
2013,05,04,06,35,10.90
2013,05,04,06,36,10.90
2013,05,04,06,37,10.90
2013,05,04,06,38,10.90
2013,05,04,06,39,10.90
2013,05,04,06,40,10.90
2013,05,04,06,41,10.90
2013,05,04,06,42,11.00
2013,05,04,06,43,11.10
2013,05,04,06,44,11.10
2013,05,04,06,45,11.10
2013,05,04,06,46,11.10
2013,05,04,06,47,11.20
2013,05,04,06,48,11.20
2013,05,04,06,49,11.20
2013,05,04,06,50,11.30
2013,05,04,06,51,11.30
2013,05,04,06,52,11.30
2013,05,04,06,53,11.40
2013,05,04,06,54,11.40
2013,05,04,06,55,11.40
2013,05,04,06,56,11.30
2013,05,04,06,57,11.20
2013,05,04,06,58,11.20
2013,05,04,06,59,11.20
2013,05,04,07,00,11.20
2013,05,04,07,01,11.20
2013,05,04,07,02,11.30
2013,05,04,07,03,11.40
2013,05,04,07,04,11.50
2013,05,04,07,05,11.60
2013,05,04,07,06,11.60
2013,05,04,07,07,11.70
2013,05,04,07,08,11.80
2013,05,04,07,09,11.80
2013,05,04,07,10,11.80
2013,05,04,07,11,11.80
2013,05,04,07,12,11.80
2013,05,04,07,13,11.90
2013,05,04,07,14,12.00
2013,05,04,07,15,12.10
2013,05,04,07,16,12.30
2013,05,04,07,17,12.40
2013,05,04,07,18,12.50
2013,05,04,07,19,12.50
2013,05,04,07,20,12.60
2013,05,04,07,21,12.80
2013,05,04,07,22,12.90
2013,05,04,07,23,13.00
2013,05,04,07,24,13.10
2013,05,04,07,25,13.20
2013,05,04,07,26,13.30
2013,05,04,07,27,13.30
2013,05,04,07,28,13.40
2013,05,04,07,29,13.40
2013,05,04,07,30,13.40
2013,05,04,07,31,13.50
2013,05,04,07,32,13.50
2013,05,04,07,33,13.50
2013,05,04,07,34,13.50
2013,05,04,07,35,13.50
2013,05,04,07,36,13.50
2013,05,04,07,37,13.50
2013,05,04,07,38,13.60
2013,05,04,07,39,13.60
2013,05,04,07,40,13.60
2013,05,04,07,41,13.60
2013,05,04,07,42,13.50
2013,05,04,07,43,13.50
2013,05,04,07,44,13.60
2013,05,04,07,45,13.60
2013,05,04,07,46,13.60
2013,05,04,07,47,13.60
2013,05,04,07,48,13.60
2013,05,04,07,49,13.60
2013,05,04,07,50,13.60
2013,05,04,07,51,13.70
2013,05,04,07,52,13.70
2013,05,04,07,53,13.70
2013,05,04,07,54,13.70
2013,05,04,07,55,13.70
2013,05,04,07,56,13.70
2013,05,04,07,57,13.60
2013,05,04,07,58,13.60
2013,05,04,07,59,13.60
2013,05,04,08,00,13.50
2013,05,04,08,01,13.50
2013,05,04,08,02,13.50
2013,05,04,08,03,13.50
2013,05,04,08,04,13.50
2013,05,04,08,05,13.60
2013,05,04,08,06,13.60
2013,05,04,08,07,13.60
2013,05,04,08,08,13.70
2013,05,04,08,09,13.70
2013,05,04,08,10,13.80
2013,05,04,08,11,13.80
2013,05,04,08,12,13.80
2013,05,04,08,13,13.90
2013,05,04,08,14,13.90
2013,05,04,08,15,13.90
2013,05,04,08,16,13.90
2013,05,04,08,17,14.00
2013,05,04,08,18,14.00
2013,05,04,08,19,14.10
2013,05,04,08,20,14.10
2013,05,04,08,21,14.20
2013,05,04,08,22,14.20
2013,05,04,08,23,14.20
2013,05,04,08,24,14.20
2013,05,04,08,25,14.20
2013,05,04,08,26,14.20
2013,05,04,08,27,14.20
2013,05,04,08,28,14.10
2013,05,04,08,29,14.10
2013,05,04,08,30,14.10
2013,05,04,08,31,14.10
2013,05,04,08,32,14.10
2013,05,04,08,33,14.10
2013,05,04,08,34,14.20
2013,05,04,08,35,14.20
2013,05,04,08,36,14.20
2013,05,04,08,37,14.20
2013,05,04,08,38,14.20
2013,05,04,08,39,14.30
2013,05,04,08,40,14.40
2013,05,04,08,41,14.40
2013,05,04,08,42,14.40
2013,05,04,08,43,14.40
2013,05,04,08,44,14.40
2013,05,04,08,45,14.30
2013,05,04,08,46,14.30
2013,05,04,08,47,14.30
2013,05,04,08,48,14.30
2013,05,04,08,49,14.30
2013,05,04,08,50,14.30
2013,05,04,08,51,14.30
2013,05,04,08,52,14.30
2013,05,04,08,53,14.20
2013,05,04,08,54,14.30
2013,05,04,08,55,14.40
2013,05,04,08,56,14.40
2013,05,04,08,57,14.50
2013,05,04,08,58,14.50
2013,05,04,08,59,14.50
2013,05,04,09,00,14.40
2013,05,04,09,01,14.40
2013,05,04,09,02,14.40
2013,05,04,09,03,14.30
2013,05,04,09,04,14.40
2013,05,04,09,05,14.40
2013,05,04,09,06,14.40
2013,05,04,09,07,14.40
2013,05,04,09,08,14.40
2013,05,04,09,09,14.40
2013,05,04,09,10,14.40
2013,05,04,09,11,14.40
2013,05,04,09,12,14.40
2013,05,04,09,13,14.40
2013,05,04,09,14,14.50
2013,05,04,09,15,14.50
2013,05,04,09,16,14.60
2013,05,04,09,17,14.60
2013,05,04,09,18,14.50
2013,05,04,09,19,14.50
2013,05,04,09,20,14.50
2013,05,04,09,21,14.40
2013,05,04,09,22,14.40
2013,05,04,09,23,14.30
2013,05,04,09,24,14.30
2013,05,04,09,25,14.30
2013,05,04,09,26,14.30
2013,05,04,09,27,14.30
2013,05,04,09,28,14.40
2013,05,04,09,29,14.50
2013,05,04,09,30,14.50
2013,05,04,09,31,14.50
2013,05,04,09,32,14.40
2013,05,04,09,33,14.30
2013,05,04,09,34,14.30
2013,05,04,09,35,14.30
2013,05,04,09,36,14.30
2013,05,04,09,37,14.40
2013,05,04,09,38,14.40
2013,05,04,09,39,14.40
2013,05,04,09,40,14.50
2013,05,04,09,41,14.60
2013,05,04,09,42,14.60
2013,05,04,09,43,14.70
2013,05,04,09,44,14.70
2013,05,04,09,45,14.70
2013,05,04,09,46,14.80
2013,05,04,09,47,14.80
2013,05,04,09,48,14.80
2013,05,04,09,49,14.80
2013,05,04,09,50,14.80
2013,05,04,09,51,14.90
2013,05,04,09,52,15.00
2013,05,04,09,53,15.10
2013,05,04,09,54,15.20
2013,05,04,09,55,15.30
2013,05,04,09,56,15.30
2013,05,04,09,57,15.30
2013,05,04,09,58,15.30
2013,05,04,09,59,15.30
2013,05,04,10,00,15.30
2013,05,04,10,01,15.30
2013,05,04,10,02,15.30
2013,05,04,10,03,15.30
2013,05,04,10,04,15.30
2013,05,04,10,05,15.30
2013,05,04,10,06,15.20
2013,05,04,10,07,15.10
2013,05,04,10,08,15.00
2013,05,04,10,09,14.90
2013,05,04,10,10,14.80
2013,05,04,10,11,14.70
2013,05,04,10,12,14.60
2013,05,04,10,13,14.50
2013,05,04,10,14,14.50
2013,05,04,10,15,14.40
2013,05,04,10,16,14.40
2013,05,04,10,17,14.40
2013,05,04,10,18,14.30
2013,05,04,10,19,14.30
2013,05,04,10,20,14.30
2013,05,04,10,21,14.30
2013,05,04,10,22,14.40
2013,05,04,10,23,14.50
2013,05,04,10,24,14.50
2013,05,04,10,25,14.50
2013,05,04,10,26,14.50
2013,05,04,10,27,14.60
2013,05,04,10,28,14.70
2013,05,04,10,29,14.70
2013,05,04,10,30,14.70
2013,05,04,10,31,14.80
2013,05,04,10,32,14.80
2013,05,04,10,33,14.90
2013,05,04,10,34,14.90
2013,05,04,10,35,14.90
2013,05,04,10,36,14.90
2013,05,04,10,37,14.90
2013,05,04,10,38,14.80
2013,05,04,10,39,14.80
2013,05,04,10,40,14.90
2013,05,04,10,41,15.00
2013,05,04,10,42,15.10
2013,05,04,10,43,15.10
2013,05,04,10,44,15.10
2013,05,04,10,45,15.20
2013,05,04,10,46,15.30
2013,05,04,10,47,15.30
2013,05,04,10,48,15.30
2013,05,04,10,49,15.40
2013,05,04,10,50,15.50
2013,05,04,10,51,15.60
2013,05,04,10,52,15.60
2013,05,04,10,53,15.70
2013,05,04,10,54,15.60
2013,05,04,10,55,15.60
2013,05,04,10,56,15.50
2013,05,04,10,57,15.60
2013,05,04,10,58,15.70
2013,05,04,10,59,15.80
2013,05,04,11,00,15.70
2013,05,04,11,01,15.70
2013,05,04,11,02,15.70
2013,05,04,11,03,15.70
2013,05,04,11,04,15.70
2013,05,04,11,05,15.70
2013,05,04,11,06,15.60
2013,05,04,11,07,15.70
2013,05,04,11,08,15.70
2013,05,04,11,09,15.80
2013,05,04,11,10,15.80
2013,05,04,11,11,15.80
2013,05,04,11,12,15.90
2013,05,04,11,13,15.90
2013,05,04,11,14,16.10
2013,05,04,11,15,16.10
2013,05,04,11,16,16.10
2013,05,04,11,17,16.10
2013,05,04,11,18,16.10
2013,05,04,11,19,16.20
2013,05,04,11,20,16.20
2013,05,04,11,21,16.20
2013,05,04,11,22,16.30
2013,05,04,11,23,16.30
2013,05,04,11,24,16.30
2013,05,04,11,25,16.20
2013,05,04,11,26,16.20
2013,05,04,11,27,16.20
2013,05,04,11,28,16.10
2013,05,04,11,29,16.10
2013,05,04,11,30,16.10
2013,05,04,11,31,16.10
2013,05,04,11,32,16.10
2013,05,04,11,33,16.20
2013,05,04,11,34,16.20
2013,05,04,11,35,16.20
2013,05,04,11,36,16.10
2013,05,04,11,37,16.10
2013,05,04,11,38,16.10
2013,05,04,11,39,16.10
2013,05,04,11,40,16.20
2013,05,04,11,41,16.30
2013,05,04,11,42,16.40
2013,05,04,11,43,16.50
2013,05,04,11,44,16.60
2013,05,04,11,45,16.60
2013,05,04,11,46,16.60
2013,05,04,11,47,16.60
2013,05,04,11,48,16.60
2013,05,04,11,49,16.60
2013,05,04,11,50,16.70
2013,05,04,11,51,16.70
2013,05,04,11,52,16.70
2013,05,04,11,53,16.80
2013,05,04,11,54,16.80
2013,05,04,11,55,16.80
2013,05,04,11,56,16.70
2013,05,04,11,57,16.60
2013,05,04,11,58,16.60
2013,05,04,11,59,16.60
2013,05,04,12,00,16.60
2013,05,04,12,01,16.50
2013,05,04,12,02,16.40
2013,05,04,12,03,16.50
2013,05,04,12,04,16.60
2013,05,04,12,05,16.70
2013,05,04,12,06,16.70
2013,05,04,12,07,16.70
2013,05,04,12,08,16.70
2013,05,04,12,09,16.70
2013,05,04,12,10,16.70
2013,05,04,12,11,16.60
2013,05,04,12,12,16.50
2013,05,04,12,13,16.40
2013,05,04,12,14,16.40
2013,05,04,12,15,16.40
2013,05,04,12,16,16.40
2013,05,04,12,17,16.40
2013,05,04,12,18,16.60
2013,05,04,12,19,16.50
2013,05,04,12,20,16.60
2013,05,04,12,21,16.60
2013,05,04,12,22,16.40
2013,05,04,12,23,16.40
2013,05,04,12,24,16.40
2013,05,04,12,25,16.40
2013,05,04,12,26,16.40
2013,05,04,12,27,16.40
2013,05,04,12,28,16.40
2013,05,04,12,29,16.40
2013,05,04,12,30,16.40
2013,05,04,12,31,16.60
2013,05,04,12,32,16.70
2013,05,04,12,33,16.70
2013,05,04,12,34,16.70
2013,05,04,12,35,16.70
2013,05,04,12,36,16.70
2013,05,04,12,37,16.70
2013,05,04,12,38,16.60
2013,05,04,12,39,16.50
2013,05,04,12,40,16.40
2013,05,04,12,41,16.40
2013,05,04,12,42,16.40
2013,05,04,12,43,16.50
2013,05,04,12,44,16.60
2013,05,04,12,45,16.60
2013,05,04,12,46,16.50
2013,05,04,12,47,16.40
2013,05,04,12,48,16.40
2013,05,04,12,49,16.40
2013,05,04,12,50,16.40
2013,05,04,12,51,16.30
2013,05,04,12,52,16.40
2013,05,04,12,53,16.50
2013,05,04,12,54,16.60
2013,05,04,12,55,16.70
2013,05,04,12,56,16.70
2013,05,04,12,57,16.70
2013,05,04,12,58,16.80
2013,05,04,12,59,16.90
2013,05,04,13,00,16.90
2013,05,04,13,01,16.90
2013,05,04,13,02,16.90
2013,05,04,13,03,16.90
2013,05,04,13,04,16.90
2013,05,04,13,05,17.00
2013,05,04,13,06,17.00
2013,05,04,13,07,16.90
2013,05,04,13,08,16.90
2013,05,04,13,09,16.90
2013,05,04,13,10,16.90
2013,05,04,13,11,16.90
2013,05,04,13,12,16.90
2013,05,04,13,13,16.90
2013,05,04,13,14,16.90
2013,05,04,13,15,17.00
2013,05,04,13,16,17.10
2013,05,04,13,17,17.30
2013,05,04,13,18,17.30
2013,05,04,13,19,17.30
2013,05,04,13,20,17.30
2013,05,04,13,21,17.40
2013,05,04,13,22,17.40
2013,05,04,13,23,17.50
2013,05,04,13,24,17.70
2013,05,04,13,25,17.80
2013,05,04,13,26,18.00
2013,05,04,13,27,18.10
2013,05,04,13,28,18.30
2013,05,04,13,29,18.40
2013,05,04,13,30,18.50
2013,05,04,13,31,18.60
2013,05,04,13,32,18.70
2013,05,04,13,33,18.70
2013,05,04,13,34,18.80
2013,05,04,13,35,18.80
2013,05,04,13,36,18.80
2013,05,04,13,37,18.90
2013,05,04,13,38,18.90
2013,05,04,13,39,18.90
2013,05,04,13,40,18.90
2013,05,04,13,41,18.90
2013,05,04,13,42,18.90
2013,05,04,13,43,19.00
2013,05,04,13,44,19.10
2013,05,04,13,45,19.10
2013,05,04,13,46,19.10
2013,05,04,13,47,19.00
2013,05,04,13,48,18.90
2013,05,04,13,49,18.90
2013,05,04,13,50,18.90
2013,05,04,13,51,18.80
2013,05,04,13,52,18.80
2013,05,04,13,53,18.80
2013,05,04,13,54,18.80
2013,05,04,13,55,18.90
2013,05,04,13,56,18.90
2013,05,04,13,57,18.90
2013,05,04,13,58,18.90
2013,05,04,13,59,19.00
2013,05,04,14,00,19.10
2013,05,04,14,01,19.10
2013,05,04,14,02,19.10
2013,05,04,14,03,19.20
2013,05,04,14,04,19.20
2013,05,04,14,05,19.20
2013,05,04,14,06,19.20
2013,05,04,14,07,19.20
2013,05,04,14,08,19.20
2013,05,04,14,09,19.30
2013,05,04,14,10,19.30
2013,05,04,14,11,19.40
2013,05,04,14,12,19.40
2013,05,04,14,13,19.40
2013,05,04,14,14,19.50
2013,05,04,14,15,19.50
2013,05,04,14,16,19.50
2013,05,04,14,17,19.50
2013,05,04,14,18,19.50
2013,05,04,14,19,19.50
2013,05,04,14,20,19.50
2013,05,04,14,21,19.50
2013,05,04,14,22,19.50
2013,05,04,14,23,19.50
2013,05,04,14,24,19.50
2013,05,04,14,25,19.50
2013,05,04,14,26,19.50
2013,05,04,14,27,19.60
2013,05,04,14,28,19.60
2013,05,04,14,29,19.60
2013,05,04,14,30,19.60
2013,05,04,14,31,19.60
2013,05,04,14,32,19.60
2013,05,04,14,33,19.60
2013,05,04,14,34,19.60
2013,05,04,14,35,19.70
2013,05,04,14,36,19.70
2013,05,04,14,37,19.80
2013,05,04,14,38,19.80
2013,05,04,14,39,19.90
2013,05,04,14,40,20.00
2013,05,04,14,41,20.10
2013,05,04,14,42,20.20
2013,05,04,14,43,20.20
2013,05,04,14,44,20.20
2013,05,04,14,45,20.20
2013,05,04,14,46,20.20
2013,05,04,14,47,20.20
2013,05,04,14,48,20.20
2013,05,04,14,49,20.20
2013,05,04,14,50,20.20
2013,05,04,14,51,20.20
2013,05,04,14,52,20.20
2013,05,04,14,53,20.20
2013,05,04,14,54,20.10
2013,05,04,14,55,20.10
2013,05,04,14,56,20.00
2013,05,04,14,57,20.00
2013,05,04,14,58,20.10
2013,05,04,14,59,20.10
2013,05,04,15,00,20.20
2013,05,04,15,01,20.30
2013,05,04,15,02,20.40
2013,05,04,15,03,20.50
2013,05,04,15,04,20.60
2013,05,04,15,05,20.70
2013,05,04,15,06,20.70
2013,05,04,15,07,20.70
2013,05,04,15,08,20.70
2013,05,04,15,09,20.80
2013,05,04,15,10,20.90
2013,05,04,15,11,20.90
2013,05,04,15,12,20.90
2013,05,04,15,13,20.90
2013,05,04,15,14,20.90
2013,05,04,15,15,20.80
2013,05,04,15,16,20.80
2013,05,04,15,17,20.80
2013,05,04,15,18,20.70
2013,05,04,15,19,20.70
2013,05,04,15,20,20.60
2013,05,04,15,21,20.70
2013,05,04,15,22,20.70
2013,05,04,15,23,20.70
2013,05,04,15,24,20.80
2013,05,04,15,25,20.70
2013,05,04,15,26,20.70
2013,05,04,15,27,20.60
2013,05,04,15,28,20.60
2013,05,04,15,29,20.50
2013,05,04,15,30,20.60
2013,05,04,15,31,20.60
2013,05,04,15,32,20.70
2013,05,04,15,33,20.80
2013,05,04,15,34,20.90
2013,05,04,15,35,21.00
2013,05,04,15,36,21.10
2013,05,04,15,37,21.20
2013,05,04,15,38,21.30
2013,05,04,15,39,21.30
2013,05,04,15,40,21.30
2013,05,04,15,41,21.30
2013,05,04,15,42,21.20
2013,05,04,15,43,21.20
2013,05,04,15,44,21.20
2013,05,04,15,45,21.20
2013,05,04,15,46,21.20
2013,05,04,15,47,21.20
2013,05,04,15,48,21.20
2013,05,04,15,49,21.20
2013,05,04,15,50,21.10
2013,05,04,15,51,21.10
2013,05,04,15,52,21.10
2013,05,04,15,53,21.10
2013,05,04,15,54,21.10
2013,05,04,15,55,21.20
2013,05,04,15,56,21.30
2013,05,04,15,57,21.30
2013,05,04,15,58,21.30
2013,05,04,15,59,21.40
2013,05,04,16,00,21.60
2013,05,04,16,01,21.60
2013,05,04,16,02,21.70
2013,05,04,16,03,21.60
2013,05,04,16,04,21.60
2013,05,04,16,05,21.60
2013,05,04,16,06,21.60
2013,05,04,16,07,21.60
2013,05,04,16,08,21.60
2013,05,04,16,09,21.60
2013,05,04,16,10,21.60
2013,05,04,16,11,21.60
2013,05,04,16,12,21.60
2013,05,04,16,13,21.70
2013,05,04,16,14,21.80
2013,05,04,16,15,21.90
2013,05,04,16,16,21.90
2013,05,04,16,17,21.90
2013,05,04,16,18,21.90
2013,05,04,16,19,21.90
2013,05,04,16,20,21.90
2013,05,04,16,21,21.80
2013,05,04,16,22,21.70
2013,05,04,16,23,21.70
2013,05,04,16,24,21.60
2013,05,04,16,25,21.60
2013,05,04,16,26,21.70
2013,05,04,16,27,21.80
2013,05,04,16,28,21.90
2013,05,04,16,29,22.00
2013,05,04,16,30,22.00
2013,05,04,16,31,22.00
2013,05,04,16,32,22.00
2013,05,04,16,33,22.00
2013,05,04,16,34,22.00
2013,05,04,16,35,22.00
2013,05,04,16,36,22.00
2013,05,04,16,37,22.00
2013,05,04,16,38,22.00
2013,05,04,16,39,22.10
2013,05,04,16,40,22.00
2013,05,04,16,41,22.10
2013,05,04,16,42,22.10
2013,05,04,16,43,22.20
2013,05,04,16,44,22.20
2013,05,04,16,45,22.20
2013,05,04,16,46,22.20
2013,05,04,16,47,22.20
2013,05,04,16,48,22.20
2013,05,04,16,49,22.20
2013,05,04,16,50,22.20
2013,05,04,16,51,22.30
2013,05,04,16,52,22.30
2013,05,04,16,53,22.40
2013,05,04,16,54,22.30
2013,05,04,16,55,22.30
2013,05,04,16,56,22.20
2013,05,04,16,57,22.20
2013,05,04,16,58,22.20
2013,05,04,16,59,22.20
2013,05,04,17,00,22.20
2013,05,04,17,01,22.20
2013,05,04,17,02,22.30
2013,05,04,17,03,22.40
2013,05,04,17,04,22.40
2013,05,04,17,05,22.40
2013,05,04,17,06,22.30
2013,05,04,17,07,22.30
2013,05,04,17,08,22.30
2013,05,04,17,09,22.20
2013,05,04,17,10,22.20
2013,05,04,17,11,22.10
2013,05,04,17,12,22.10
2013,05,04,17,13,22.10
2013,05,04,17,14,22.20
2013,05,04,17,15,22.20
2013,05,04,17,16,22.30
2013,05,04,17,17,22.30
2013,05,04,17,18,22.40
2013,05,04,17,19,22.50
2013,05,04,17,20,22.50
2013,05,04,17,21,22.50
2013,05,04,17,22,22.60
2013,05,04,17,23,22.60
2013,05,04,17,24,22.60
2013,05,04,17,25,22.60
2013,05,04,17,26,22.60
2013,05,04,17,27,22.60
2013,05,04,17,28,22.60
2013,05,04,17,29,22.60
2013,05,04,17,30,22.60
2013,05,04,17,31,22.60
2013,05,04,17,32,22.50